NRL44K KOLV-KMEM

Flight info

Callsign NRL44K
Flight time 0h -6m
Altitude 4000
Route TWIKL
Aircraft B734/M-SDE2E3FHIRW/S

Departure

Time 2026-04-21 02:44
Airport Olive Branch Airport (KOLV)

Arrival

Time 2026-04-21 02:38
Airport Memphis International Airport (KMEM)
Time Latitude Longitude Altitude Speed Heading
2026-04-21 02:38 34.97098 -89.78851 403 ft 13 kts 318°
2026-04-21 02:38 34.97258 -89.78846 401 ft 33 kts 18°
2026-04-21 02:38 34.97477 -89.78817 399 ft 14 kts 359°
2026-04-21 02:38 34.97568 -89.78818 399 ft 10 kts
2026-04-21 02:39 34.97577 -89.78818 399 ft 0 kts
2026-04-21 02:41 34.97612 -89.78815 399 ft 18 kts
2026-04-21 02:41 34.97671 -89.78815 399 ft 5 kts 358°
2026-04-21 02:41 34.97871 -89.78820 403 ft 36 kts 357°
2026-04-21 02:42 34.98122 -89.78822 402 ft 35 kts 359°
2026-04-21 02:42 34.98312 -89.78824 403 ft 12 kts 360°
2026-04-21 02:42 34.98443 -89.78826 400 ft 25 kts 360°
2026-04-21 02:42 34.98605 -89.78827 397 ft 19 kts 357°
2026-04-21 02:43 34.98679 -89.78822 396 ft 1 kts 29°
2026-04-21 02:43 34.98690 -89.78796 396 ft 6 kts 85°
2026-04-21 02:43 34.98684 -89.78718 396 ft 11 kts 132°
2026-04-21 02:43 34.98563 -89.78695 398 ft 45 kts 180°
2026-04-21 02:44 34.97921 -89.78690 433 ft 131 kts 175°
2026-04-21 02:44 34.96995 -89.78609 1129 ft 134 kts 173°
2026-04-21 02:44 34.96430 -89.78496 1709 ft 125 kts 167°
2026-04-21 02:44 34.95242 -89.78183 2356 ft 158 kts 166°
2026-04-21 02:45 34.94332 -89.77337 2778 ft 177 kts 127°
2026-04-21 02:45 34.93693 -89.75943 3013 ft 208 kts 114°
2026-04-21 02:45 34.93384 -89.74738 3036 ft 233 kts 104°
2026-04-21 02:45 34.93229 -89.71922 3030 ft 272 kts 87°
2026-04-21 02:46 34.93472 -89.69653 2933 ft 253 kts 86°
2026-04-21 02:46 34.93481 -89.67678 2907 ft 216 kts 99°
2026-04-21 02:46 34.93179 -89.65936 2946 ft 207 kts 111°
2026-04-21 02:46 34.92599 -89.64363 2948 ft 203 kts 123°
2026-04-21 02:47 34.91761 -89.62993 2963 ft 201 kts 135°
2026-04-21 02:47 34.90699 -89.61883 2965 ft 199 kts 148°
2026-04-21 02:47 34.89484 -89.61104 2956 ft 197 kts 160°
2026-04-21 02:47 34.88151 -89.60675 2960 ft 198 kts 172°
2026-04-21 02:48 34.86788 -89.60629 2958 ft 195 kts 184°
2026-04-21 02:48 34.85475 -89.60970 2942 ft 195 kts 202°
2026-04-21 02:48 34.84726 -89.61593 2935 ft 196 kts 224°
2026-04-21 02:48 34.84106 -89.63702 2950 ft 210 kts 270°
2026-04-21 02:49 34.84364 -89.64861 2956 ft 216 kts 292°
2026-04-21 02:49 34.85858 -89.66523 2972 ft 225 kts 329°
2026-04-21 02:49 34.87216 -89.67448 2971 ft 225 kts 327°
2026-04-21 02:49 34.88597 -89.68381 2979 ft 227 kts 326°
2026-04-21 02:50 34.89957 -89.69308 2964 ft 226 kts 326°
2026-04-21 02:50 34.91327 -89.70243 2967 ft 226 kts 326°
2026-04-21 02:50 34.92696 -89.71188 2967 ft 223 kts 326°
2026-04-21 02:50 34.94071 -89.72134 2967 ft 228 kts 326°
2026-04-21 02:51 34.95444 -89.73080 2969 ft 224 kts 326°
2026-04-21 02:51 34.96818 -89.74021 2978 ft 224 kts 326°
2026-04-21 02:51 34.98180 -89.74957 2976 ft 225 kts 326°
2026-04-21 02:51 34.99556 -89.75890 2977 ft 224 kts 326°
2026-04-21 02:52 35.00486 -89.76517 2979 ft 226 kts 326°
2026-04-21 02:52 35.02399 -89.77524 2949 ft 227 kts 346°
2026-04-21 02:52 35.03452 -89.77750 3012 ft 228 kts 347°
2026-04-21 02:52 35.05562 -89.78185 2815 ft 227 kts 347°
2026-04-21 02:53 35.07133 -89.78510 2697 ft 230 kts 347°
2026-04-21 02:53 35.08723 -89.78842 2581 ft 227 kts 347°
2026-04-21 02:53 35.09745 -89.79055 2494 ft 227 kts 347°
2026-04-21 02:53 35.11829 -89.79491 2323 ft 225 kts 347°
2026-04-21 02:54 35.13385 -89.79819 2202 ft 227 kts 347°
2026-04-21 02:54 35.14421 -89.80034 2121 ft 225 kts 347°
2026-04-21 02:54 35.16425 -89.80576 1932 ft 207 kts 333°
2026-04-21 02:54 35.17694 -89.81335 1998 ft 203 kts 328°
2026-04-21 02:55 35.18952 -89.82153 1975 ft 202 kts 323°
2026-04-21 02:55 35.19706 -89.82836 1989 ft 198 kts 311°
2026-04-21 02:55 35.20842 -89.84566 1984 ft 195 kts 298°
2026-04-21 02:55 35.21604 -89.85956 1979 ft 195 kts 297°
2026-04-21 02:56 35.22047 -89.86923 1982 ft 193 kts 286°
2026-04-21 02:56 35.23046 -89.90546 1981 ft 191 kts 268°
2026-04-21 02:56 35.23057 -89.91578 1952 ft 174 kts 257°
2026-04-21 02:57 35.22662 -89.93430 2160 ft 165 kts 239°
2026-04-21 02:57 35.22274 -89.94254 2005 ft 166 kts 229°
2026-04-21 02:57 35.21550 -89.95242 1975 ft 155 kts 217°
2026-04-21 02:57 35.20756 -89.96132 1978 ft 150 kts 214°
2026-04-21 02:58 35.19578 -89.97073 1982 ft 150 kts 207°
2026-04-21 02:58 35.18617 -89.97592 1984 ft 150 kts 194°
2026-04-21 02:58 35.17918 -89.97778 1986 ft 149 kts 187°
2026-04-21 02:58 35.16533 -89.97768 1981 ft 149 kts 173°
2026-04-21 02:59 35.15843 -89.97641 1972 ft 149 kts 173°
2026-04-21 02:59 35.14795 -89.97520 2018 ft 156 kts 176°
2026-04-21 02:59 35.13732 -89.97466 1952 ft 150 kts 177°
2026-04-21 02:59 35.12681 -89.97441 1983 ft 150 kts 179°
2026-04-21 03:00 35.11601 -89.97410 1569 ft 154 kts 177°
2026-04-21 03:00 35.10210 -89.97386 1298 ft 154 kts 179°
2026-04-21 03:00 35.09515 -89.97374 1162 ft 141 kts 179°
2026-04-21 03:00 35.08564 -89.97361 982 ft 133 kts 178°
2026-04-21 03:01 35.07647 -89.97338 835 ft 133 kts 176°
2026-04-21 03:01 35.06739 -89.97319 661 ft 130 kts 178°
2026-04-21 03:01 35.05794 -89.97309 501 ft 134 kts 176°
2026-04-21 03:01 35.04859 -89.97290 316 ft 131 kts 178°
2026-04-21 03:02 35.04045 -89.97280 298 ft 91 kts 176°
2026-04-21 03:02 35.03493 -89.97263 309 ft 37 kts 181°
2026-04-21 03:02 35.03326 -89.97295 312 ft 34 kts 197°
2026-04-21 03:02 35.03199 -89.97384 318 ft 11 kts 233°
2026-04-21 03:03 35.03239 -89.97438 319 ft 16 kts 359°
2026-04-21 03:03 35.03581 -89.97443 314 ft 81 kts 358°
2026-04-21 03:03 35.04153 -89.97455 300 ft 97 kts 358°
2026-04-21 03:03 35.04858 -89.97470 284 ft 96 kts 358°
2026-04-21 03:04 35.05223 -89.97477 277 ft 36 kts 359°
2026-04-21 03:04 35.05565 -89.97485 269 ft 39 kts 359°
2026-04-21 03:04 35.05670 -89.97587 265 ft 30 kts 269°
2026-04-21 03:04 35.05621 -89.97782 266 ft 12 kts 167°